North Bend, OR

4:23 AM PST on February 21, 2018 (GMT -0800)
North Bend Municipal

Weather History for KOTH - April, 2013

Change the Weather History Date:

Friday, April 5, 2013

  Actual Average Record
Temperature  
Mean Temperature 54 °F 48 °F  
Max Temperature 55 °F 54 °F 73 °F (1906)
Min Temperature 52 °F 42 °F 30 °F (1975)
Degree Days  
Heating Degree Days 11 17  
Month to date heating degree days 63 85  
Since 1 July heating degree days 3613 3797  
Cooling Degree Days 0 0  
Month to date cooling degree days 0 0  
Year to date cooling degree days 0 0  
Growing Degree Days 3 (Base 50)    
Moisture  
Dew Point 52 °F    
Average Humidity 94    
Maximum Humidity 100    
Minimum Humidity 86    
Precipitation  
Precipitation 0.29 in 0.22 in 1.85 in (1991)
Month to date precipitation 1.14 1.08  
Year to date precipitation 10.78 26.69  
Sea Level Pressure  
Sea Level Pressure 29.99 in    
Wind  
Wind Speed 12 mph (SSW)    
Max Wind Speed 17 mph    
Max Gust Speed 30 mph    
Visibility 9 miles    
Events      
T = Trace of Precipitation, MM = Missing Value Source: NWS Daily Summary

Daily Weather History Graph

Daily Weather History Graph

Search for Another Location

Airport or City:

Trip Planner

Search our weather history database for the weather conditions in past years. The results will help you decide how hot, cold, wet, or windy it might be!

Date:

Astronomy

Apr. 05, 2013 Rise Set
Actual Time 6:51 AM PDT 7:48 PM PDT
Civil Twilight 6:22 AM PDT 8:17 PM PDT
Nautical Twilight 5:47 AM PDT 8:52 PM PDT
Astronomical Twilight 5:11 AM PDT 9:29 PM PDT
Moon 4:09 AM PDT (4/5) 3:11 PM PDT (4/5)
Length of Visible Light 13h 55m
Length of Day
12h 57m
Waning Crescent, 22% of the Moon is Illuminated
Apr 5
Waning Crescent
Apr 10
New
Apr 18
First Quarter
Apr 25
Full
May 2
Last Quarter

Hourly Weather History & Observations

Time (PDT) Temp. Dew Point Humidity Pressure Visibility Wind Dir Wind Speed Gust Speed Precip Events Conditions
12:15 AM 53.6 °F 51.8 °F 94% 29.96 in 5.0 mi SSW 12.7 mph 18.4 mph N/A   Overcast
12:35 AM 53.6 °F 51.8 °F 94% 29.97 in 10.0 mi South 9.2 mph - N/A   Overcast
12:55 AM 53.6 °F 51.8 °F 94% 29.97 in 8.0 mi South 9.2 mph 16.1 mph N/A   Overcast
1:15 AM 53.6 °F 51.8 °F 94% 29.97 in 10.0 mi South 11.5 mph 21.9 mph N/A   Overcast
1:35 AM 53.6 °F 51.8 °F 94% 29.98 in 10.0 mi South 12.7 mph 18.4 mph N/A   Overcast
1:55 AM 53.6 °F 51.8 °F 94% 29.98 in 10.0 mi South 10.4 mph - N/A   Overcast
2:15 AM 53.6 °F 51.8 °F 94% 29.98 in 3.0 mi South 13.8 mph 19.6 mph N/A   Overcast
2:35 AM 53.6 °F 51.8 °F 94% 29.99 in 4.0 mi South 13.8 mph 21.9 mph N/A   Overcast
2:55 AM 53.6 °F 51.8 °F 94% 29.99 in 10.0 mi South 15.0 mph 19.6 mph N/A   Overcast
3:15 AM 53.6 °F 51.8 °F 94% 30.00 in 6.0 mi South 12.7 mph 17.3 mph N/A   Overcast
3:35 AM 51.8 °F 50.0 °F 94% 30.00 in 2.5 mi SSW 8.1 mph - 0.01 in   Overcast
3:55 AM 51.8 °F 50.0 °F 94% 30.00 in 10.0 mi South 11.5 mph 16.1 mph 0.01 in   Overcast
4:15 AM 53.6 °F 51.8 °F 94% 30.00 in 5.0 mi SSW 11.5 mph 18.4 mph N/A   Overcast
4:35 AM 51.8 °F 50.0 °F 94% 30.00 in 8.0 mi South 11.5 mph 18.4 mph N/A   Overcast
4:55 AM 51.8 °F 50.0 °F 94% 30.00 in 10.0 mi SSW 11.5 mph 17.3 mph N/A   Overcast
5:15 AM 51.8 °F 50.0 °F 94% 30.00 in 5.0 mi South 8.1 mph - N/A   Overcast
5:35 AM 51.8 °F 50.0 °F 94% 30.00 in 3.0 mi South 10.4 mph 16.1 mph N/A   Overcast
5:55 AM 51.8 °F 51.8 °F 100% 30.00 in 10.0 mi South 8.1 mph 16.1 mph 0.01 in   Overcast
6:15 AM 53.6 °F 51.8 °F 94% 30.00 in 10.0 mi South 10.4 mph - N/A   Overcast
6:35 AM 53.6 °F 51.8 °F 94% 30.00 in 8.0 mi South 10.4 mph - N/A   Overcast
6:55 AM 51.8 °F 51.8 °F 100% 30.00 in 9.0 mi South 9.2 mph - N/A   Overcast
7:15 AM 51.8 °F 51.8 °F 100% 30.01 in 10.0 mi SSW 15.0 mph 21.9 mph N/A   Overcast
7:35 AM 51.8 °F 51.8 °F 100% 30.01 in 10.0 mi SSW 11.5 mph 18.4 mph N/A   Overcast
7:55 AM 51.8 °F 51.8 °F 100% 30.02 in 10.0 mi South 11.5 mph 21.9 mph N/A   Overcast
8:15 AM 53.6 °F 51.8 °F 94% 30.02 in 10.0 mi SSW 11.5 mph - N/A   Overcast
8:35 AM 51.8 °F 51.8 °F 100% 30.03 in 10.0 mi SSW 10.4 mph 19.6 mph N/A   Overcast
8:55 AM 53.6 °F 51.8 °F 94% 30.02 in 10.0 mi SSW 10.4 mph 17.3 mph N/A   Overcast
9:15 AM 53.6 °F 51.8 °F 94% 30.03 in 10.0 mi South 9.2 mph 18.4 mph N/A   Overcast
9:35 AM 53.6 °F 51.8 °F 94% 30.02 in 8.0 mi SSW 13.8 mph 18.4 mph N/A   Overcast
9:55 AM 53.6 °F 51.8 °F 94% 30.02 in 6.0 mi SSW 15.0 mph 19.6 mph N/A   Overcast
10:15 AM 53.6 °F 51.8 °F 94% 30.02 in 9.0 mi SSW 16.1 mph 24.2 mph N/A   Overcast
10:35 AM 53.6 °F 51.8 °F 94% 30.03 in 2.5 mi SSW 11.5 mph 21.9 mph N/A   Overcast
10:55 AM 53.6 °F 51.8 °F 94% 30.03 in 2.5 mi SW 12.7 mph 20.7 mph N/A   Overcast
11:15 AM 53.6 °F 51.8 °F 94% 30.04 in 4.0 mi SSW 12.7 mph 20.7 mph N/A   Overcast
11:35 AM 55.4 °F 51.8 °F 88% 30.03 in 10.0 mi SSW 12.7 mph 21.9 mph N/A   Overcast
11:55 AM 55.4 °F 51.8 °F 88% 30.03 in 10.0 mi SSW 16.1 mph 24.2 mph N/A   Overcast
12:15 PM 55.4 °F 51.8 °F 88% 30.04 in 10.0 mi SSW 17.3 mph 25.3 mph N/A   Overcast
12:35 PM 55.4 °F 51.8 °F 88% 30.04 in 10.0 mi SW 12.7 mph 21.9 mph N/A   Overcast
12:55 PM 55.4 °F 51.8 °F 88% 30.04 in 10.0 mi South 12.7 mph 20.7 mph N/A   Overcast
1:15 PM 55.4 °F 51.8 °F 88% 30.03 in 10.0 mi SSW 15.0 mph 19.6 mph N/A   Overcast
1:35 PM 55.4 °F 51.8 °F 88% 30.02 in 10.0 mi SSW 12.7 mph 23.0 mph N/A   Overcast
1:55 PM 55.4 °F 51.8 °F 88% 30.02 in 10.0 mi SSW 13.8 mph 26.5 mph N/A   Overcast
2:15 PM 53.6 °F 51.8 °F 94% 30.03 in 7.0 mi SSW 12.7 mph 28.8 mph N/A   Overcast
2:35 PM 53.6 °F 51.8 °F 94% 30.03 in 10.0 mi SSW 16.1 mph 23.0 mph 0.02 in   Overcast
2:55 PM 53.6 °F 51.8 °F 94% 30.03 in 9.0 mi SSW 17.3 mph 26.5 mph 0.04 in   Overcast
3:15 PM 53.6 °F 51.8 °F 94% 30.02 in 10.0 mi SSW 16.1 mph 24.2 mph 0.02 in   Overcast
3:35 PM 53.6 °F 51.8 °F 94% 30.02 in 8.0 mi South 15.0 mph 27.6 mph 0.03 in   Overcast
3:55 PM 53.6 °F 51.8 °F 94% 30.01 in 8.0 mi South 16.1 mph 23.0 mph 0.05 in   Overcast
4:15 PM 53.6 °F 51.8 °F 94% 30.00 in 10.0 mi South 11.5 mph 23.0 mph 0.01 in   Overcast
4:35 PM 53.6 °F 51.8 °F 94% 29.99 in 10.0 mi South 12.7 mph 19.6 mph 0.02 in   Overcast
4:55 PM 53.6 °F 51.8 °F 94% 29.97 in 10.0 mi South 11.5 mph 17.3 mph 0.03 in   Overcast
5:15 PM 53.6 °F 51.8 °F 94% 29.97 in 10.0 mi SSE 10.4 mph - N/A   Overcast
5:35 PM 53.6 °F 53.6 °F 100% 29.96 in 10.0 mi SSE 6.9 mph - 0.01 in   Mostly Cloudy
5:55 PM 53.6 °F 53.6 °F 100% 29.96 in 10.0 mi South 6.9 mph - 0.01 in   Overcast
6:15 PM 53.6 °F 51.8 °F 94% 29.95 in 10.0 mi SSW 6.9 mph - N/A   Overcast
6:35 PM 53.6 °F 53.6 °F 100% 29.94 in 10.0 mi South 5.8 mph - N/A   Overcast
6:55 PM 53.6 °F 51.8 °F 94% 29.94 in 10.0 mi South 6.9 mph - N/A   Overcast
7:15 PM 53.6 °F 51.8 °F 94% 29.93 in 10.0 mi South 4.6 mph - N/A   Overcast
7:35 PM 53.6 °F 51.8 °F 94% 29.92 in 10.0 mi South 8.1 mph - N/A   Overcast
7:55 PM 53.6 °F 51.8 °F 94% 29.92 in 10.0 mi South 9.2 mph - N/A   Overcast
8:15 PM 53.6 °F 51.8 °F 94% 29.91 in 8.0 mi South 10.4 mph 18.4 mph 0.02 in   Overcast
8:35 PM 53.6 °F 51.8 °F 94% 29.91 in 10.0 mi South 12.7 mph 17.3 mph 0.02 in   Overcast
8:55 PM 53.6 °F 51.8 °F 94% 29.91 in 10.0 mi South 11.5 mph 17.3 mph 0.02 in   Overcast
9:15 PM 53.6 °F 51.8 °F 94% 29.91 in 10.0 mi SSW 12.7 mph 20.7 mph 0.01 in   Overcast
9:35 PM 53.6 °F 51.8 °F 94% 29.92 in 10.0 mi South 15.0 mph 21.9 mph 0.02 in   Overcast
9:55 PM 53.6 °F 51.8 °F 94% 29.93 in 8.0 mi South 17.3 mph 29.9 mph 0.05 in   Overcast
10:15 PM 53.6 °F 51.8 °F 94% 29.94 in 5.0 mi SSW 18.4 mph 29.9 mph 0.03 in   Overcast
10:35 PM 53.6 °F 51.8 °F 94% 29.94 in 9.0 mi SSW 23.0 mph 32.2 mph 0.07 in   Overcast
10:55 PM 53.6 °F 51.8 °F 94% 29.95 in 10.0 mi SSW 15.0 mph 28.8 mph 0.07 in   Overcast
11:15 PM 53.6 °F 51.8 °F 94% 29.95 in 10.0 mi SSW 20.7 mph 31.1 mph N/A   Overcast
11:35 PM 53.6 °F 51.8 °F 94% 29.95 in 10.0 mi SSW 13.8 mph 28.8 mph N/A   Overcast
11:55 PM 53.6 °F 51.8 °F 94% 29.96 in 9.0 mi SSW 12.7 mph 26.5 mph N/A   Overcast